www.pogodaiklimat.ru

Погода и климат >> Архив погоды >> Россия >> Камчатский край >> Начики


АРХИВ ПОГОДЫ в Начиках

Время (UTC), дата Ветер
(напр.,м/с)
 
Видим.   Явления Облачность Т
(С)
Тd
(С)
f
(%)
Тe
(С)
Тes
(С)
Комфортность P
(гПа)
Po
(гПа)
Тmin
(С)
Tmax
(С)
R
(мм)
R24
(мм)
S
(см)
18 13.06 ЮВ 2 4000 м туман местами 9/8 300 м
[St Ci fib]
+3.6 +1.7 87 +1 +1 1016.3 977.5
21 13.06 штиль 0 50 км ?/? +6.9 +1.7 69 +6 +6 1016.1 977.8 +3.4
00 14.06 С 2 50 км 9/6 1000 м
[Sc Ci fib]
+11.6 +3.0 56 +11 +16 1014.8 977.2
03 14.06 З 2 50 км 8/4 1000 м
[Cu med, cong Ci fib]
+15.3 -0.1 35 +15 +20 1014.5 977.3
06 14.06 ЮЗ 3 50 км 9/3 1000 м
[Cu med, cong Ac trans Ci fib]
+13.7 +3.5 50 +13 +13 1014.7 977.3
09 14.06 ЮЗ 2 50 км 10/3 600 м
[Sc Ac und]
+10.6 +4.9 68 +9 +9 1017.9 980.0 +16.5
12 14.06 Ю 2 50 км 6/3 1000 м
[Sc Ac trans Ci sp]
+7.6 +4.6 81 +6 +6 1018.3 980.0
15 14.06 Ю 2 50 км 9/4 600 м
[Sc Ci sp]
+6.5 +4.3 86 +4 +4 1019.8 981.3
18 14.06 ЮЗ 1 50 км 10/10 600 м
[Sc]
+6.4 +3.7 83 +5 +5 1021.3 982.7
21 14.06 ЮЗ 1 20 км 10/10 300 м
[St]
+7.9 +3.4 73 +7 +7 1020.0 981.7 +6.3
00 15.06 С 1 50 км 9/3 1000 м
[Sc Ci fib]
+11.9 +4.7 61 +12 +22 1019.3 981.5
03 15.06 Ю 2 50 км 4/3 1000 м
[Cu Sc Ci fib]
+18.5 +0.1 29 +19 +28 1018.2 981.3
06 15.06 ЮЗ 3 50 км 8/6 1000 м
[Cu Sc Ci fib]
+18.0 +3.8 39 +18 +20 1018.3 981.3
09 15.06 ЮЗ 2 50 км 8/3 1000 м
[Sc Ac trans Ci fib]
+12.2 +5.6 64 +11 +12 1021.8 984.0 +19.4
12 15.06 Ю 2 50 км 8/3 1000 м
[Sc Ci sp]
+6.0 +4.6 91 +3 +3 1022.7 984.0
15 15.06 В 1 н/о н/о +3.4 +2.5 94 +2 +2 1024.4 985.3
18 15.06 В 2 50 км 9/8 1000 м
[Sc Ci fib]
+5.9 +3.7 86 +3 +3 1024.0 985.3
21 15.06 В 2 50 км 9/3 1000 м
[Sc Ac trans]
+8.1 +3.9 75 +6 +8 1023.2 984.8 +3.1
00 16.06 ЮВ 1 10 км слаб. ливневой дождь 9/9 600 м
[Cb cap]
+7.8 +5.7 87 +7 +9 1023.9 985.5
03 16.06 ЮВ 1 10 км слаб. ливневой дождь 10/10 300 м
[Cb cap]
+7.9 +6.1 88 +7 +7 1024.1 985.7
06 16.06 ЮВ 3 4000 м слаб. ливневой дождь 10/10 300 м
[Cb cap]
+8.5 +6.5 87 +6 +6 1025.1 986.7
09 16.06 ЮВ 3 4000 м слаб. ливневой дождь 10/10 300 м
[Cb cap]
+7.8 +6.3 90 +5 +5 1023.8 985.3 +8.5 2
12 16.06 ЮВ 3 4000 м слаб. ливневой дождь 10/10 300 м
[Cb cap]
+6.7 +5.5 92 +4 +4 1022.1 983.5
15 16.06 В 4 4000 м слаб. ливневой дождь 10/10 300 м
[Cb cap]
+6.6 +4.7 88 +3 +3 1021.2 982.6
18 16.06 В 6-10
{10}
4000 м ливневой дождь 10/10 300 м
[Cb cap]
+5.4 +3.8 89 0 0 1020.2 981.5
21 16.06 В 6-11
{12}
4000 м слаб. ливневой дождь 10/10 300 м
[Cb cap]
+5.6 +3.4 86 +1 +1 1018.7 980.1 +5.0 3
00 17.06 В 6-10
{12}
10 км слаб. ливневой дождь 10/10 300 м
[Cb cap]
+5.8 +2.5 79 +1 +1 1017.8 979.3
03 17.06 В 5
{11}
10 км слаб. ливневой дождь 10/10 300 м
[Cb cap]
+5.2 +1.7 78 +1 +1 1017.3 978.7
06 17.06 В 6-13
{14}
10 км слаб. ливневой дождь 10/10 300 м
[Cb cap]
+5.0 +0.9 75 0 0 1014.5 976.0
09 17.06 В 7-12
{15}
10 км слаб. ливневой дождь 9/8 300 м
[Cb cap Ci fib]
+5.0 +0.9 75 -0 -0 1013.2 974.7 +6.2 1
12 17.06 В 6-10
{16}
10 км слаб. ливневой дождь 9/9 300 м
[Cb cap]
+5.5 +1.1 73 +1 +1 1010.5 972.2
15 17.06 В 4
{14}
10 км слаб. ливневой дождь 9/9 300 м
[Cb cap]
+5.8 +1.0 71 +2 +2 1008.7 970.5
18 17.06 В 3
{14}
50 км {ливн. осадки} 9/8 600 м
[Sc Ci fib]
+5.4 +2.1 79 +2 +2 1007.8 969.6
21 17.06 СВ 5 10 км слаб. ливневой дождь 9/9 300 м
[Cb cap]
+5.9 +2.7 80 +2 +2 1006.8 968.7 +4.8 0.6
00 18.06 В 7-13
{14}
20 км в посл. час морось {ливн. осадки} 10/10 300 м
[St]
+7.0 +3.1 76 +2 +2 1005.0 967.1
03 18.06 В 4
{16}
20 км в посл. час ливневой дождь 10/10 600 м
[Sc diur, vesp]
+7.7 +3.2 73 +5 +5 1003.6 965.9
06 18.06 В 5
{16}
20 км в посл. час ливневой дождь 10/10 600 м
[Sc diur, vesp]
+7.4 +3.4 76 +4 +4 1004.5 966.7
09 18.06 СВ 8-13
{14}
10 км слаб. ливневой дождь 9/9 300 м
[Cb cap]
+7.0 +3.2 77 +2 +2 1003.1 965.3 +8.6 0.4
12 18.06 В 5
{13}
10 км слаб. ливневой дождь 10/10 300 м
[Cb cap]
+6.0 +3.9 86 +2 +2 1002.4 964.5
15 18.06 ЮВ 3
{10}
10 км слаб. ливневой дождь 9/8 600 м
[Cb cap Ac trans]
+5.4 +4.2 92 +2 +2 1002.7 964.7
18 18.06 штиль 0 10 км слаб. ливневой дождь 10/10 300 м
[Cb cap]
+4.9 +3.7 92 +4 +4 1004.1 966.0
21 18.06 ЮВ 1 4000 м слаб. морось {туман} 10/10 300 м
[St]
+6.0 +4.6 91 +5 +5 1005.2 967.2 +4.9 5
00 19.06 ЮВ 1 20 км в посл. час морось {ливн. осадки} 9/9 300 м
[Sc diur, vesp]
+8.0 +4.5 79 +7 +9 1006.3 968.5
03 19.06 ЮВ 1 10 км слаб. ливневой дождь 9/9 600 м
[Cb cap]
+10.4 +2.7 59 +10 +12 1006.8 969.3
06 19.06 Ю 2 10 км слаб. ливневой дождь 10/10 600 м
[Cb cap]
+8.6 +3.8 72 +7 +7 1008.5 970.7
09 19.06 ЮВ 3 10 км слаб. ливневой дождь 10/10 300 м
[Cb cap]
+7.0 +4.5 84 +4 +4 1008.7 970.7 +10.6 1
12 19.06 ЮВ 3 10 км слаб. ливневой дождь 10/10 300 м
[Cb cap]
+5.7 +4.4 91 +2 +2 1009.1 970.9
15 19.06 ЮВ 2 4000 м ливневой дождь 10/10 300 м
[Cb cap]
+5.3 +4.4 94 +3 +3 1010.2 971.9
18 19.06 ЮВ 1 1000 м ливневой дождь 10/10 300 м
[Cb cap]
+5.1 +4.4 95 +4 +4 1010.6 972.3
21 19.06 штиль 0 4000 м ливневой дождь 10/10 300 м
[Cb cap]
+6.0 +5.4 96 +5 +5 1011.7 973.4 +4.9 18
00 20.06 СЗ 1 2000 м ливневой дождь 10/10 300 м
[Cb cap]
+7.6 +6.9 95 +7 +7 1012.8 974.8
03 20.06 ЮЗ 1 4000 м ливневой дождь 10/10 300 м
[Cb cap]
+8.9 +6.7 86 +8 +8 1013.8 975.9
06 20.06 штиль 0 4000 м слаб. ливневой дождь 10/10 300 м
[Cb cap]
+9.7 +7.8 88 +9 +9 1015.2 977.3
09 20.06 штиль 0 2000 м слаб. ливневой дождь 10/10 300 м
[Cb cap]
+9.0 +8.2 95 +8 +8 1015.3 977.3 +9.9 17
12 20.06 штиль 0 4000 м туман на расстоянии {ливн. осадки} 10/10 300 м
[Sc diur, vesp]
+8.7 +8.2 97 +8 +8 1014.6 976.6

 

Местоположение метеостанции Начики (Камчатский край, Россия): широта 53.12 долгота 157.70 высота над уровнем моря 317 м.

В архиве по умолчанию представлена погода в Начиках за последнюю неделю. Архивные данные за месяц целиком и за предыдущие месяцы, начиная с января 2011 года, Вы можете получить, выбрав интересующий диапазон дат из раскрывающегося списка и нажав кнопку "Ввод!".


*Определитесь, кто Вы:
робот инопланетянин человек

Внимание! Время в таблицах - всемирное. Для получения местного времени необходимо прибавить поправку, которая равна 12 ч.

Смотрите также архив погоды в соседних городах и на ближайших метеорологических станциях:

Погода в Сосновке (Камчатский край, Россия) (40 км)
Погода в Петропавловск-Камч. 2 (Камчатский край, Россия) (54 км)
Погода в Петропавловск-Камчатском (Камчатский край, Россия) (66 км)
Погода в Петропавловском Маяке (Камчатский край, Россия) (72 км)
Погода в Большерецке (Камчатский край, Россия) (99 км)
Погода в Пущино (Камчатский край, Россия) (120 км)
Погода в Водопадной (Камчатский край, Россия) (146 км)
Погода в Соболево (Камчатский край, Россия) (177 км)
Погода в Мильково (Камчатский край, Россия) (181 км)
Погода в Семячике (Камчатский край, Россия) (183 км)

Пояснения к столбцам:

Ветер - указаны скорость ветра в м/с - средняя за 10 мин, порывы в срок и между сроками (в фигурных скобках) и направление, откуда дует ветер: С - северный, СВ - северо-восточный, В - восточный, ЮВ - юго-восточный, Ю - южный, ЮЗ - юго-западный, З - западный, СЗ - северо-западный.
Видимость - горизонтальная дальность видимости в метрах или километрах. При видимости от 1 до 10 км при отсутствии осадков обычно наблюдается дымка, при ухудшении видимости до 1 км и менее - туман. В сухую погоду видимость может ухудшаться дымом, пылью или мглою.
Явления - указаны атмосферные явления, наблюдавшиеся в срок или в последний час перед сроком; фигурными скобками обозначены явления, наблюдавшиеся между сроками (за 1-3 часа до срока); квадратными скобками обозначены град или гололедные отложения с указанием их диаметра в мм.
Облачность - указаны через наклонную черту общая и нижняя облачность в баллах и высота нижней границы облаков в метрах; квадратными скобками обозначены формы облаков: Ci - перистые, Cs - перисто-слоистые, Cc - перисто-кучевые, Ac - высококучевые, As - высокослоистые, Sc - слоисто-кучевые, Ns - слоисто-дождевые, Cu - кучевые, Cb - кучево-дождевые. Подробнее классификацию облаков см. в Атласе облаков (PDF).
T - Температура воздуха - температура, измеренная на высоте 2 м над землей.
Td - Температура точки росы - температура, при понижении до которой содержащийся в воздухе водяной пар достигнет насыщения.
f - Относительная влажность воздуха - влажноcть воздуха, измеренная на высоте 2 м над землей.
Te - Эффективная температура - температура, которую ощущает одетый по сезону человек в тени. Характеристика душности погоды. При расчете учитывается влияние влажности воздуха и скорости ветра на теплоощущения человека.
Tes - Эффективная температура на солнце - температура, которую ощущает человек, с поправкой на солнечный нагрев. Характеристика знойности погоды. Зависит от высоты солнца над горизонтом, облачности и скорости ветра. Ночью, в пасмурную погоду, а также при ветре 12 м/с и более поправка равна нулю.
P - Атмосферное давление - приведенное к уровню моря атмосферное давление.
Po - Атмосферное давление - измеренное на уровне метеостанции атмосферное давление.
Tmin - Минимальная температура - минимум температуры воздуха на высоте 2 м над землей.
Tmax - Максимальная температура - максимум температуры воздуха на высоте 2 м над землей.
R - Количество осадков - Количество выпавших осадков за период времени, мм. При наведении курсора мыши на число - период времени, за который выпало указанное количество осадков.
R24 - Количество осадков - Количество выпавших осадков за 24 часа, мм.
S - Снежный покров - Высота снежного покрова, см. При наведении курсора мыши на число - состояние снежного покрова и степень покрытия местности в баллах.